Location: Byszew
(52.1813°N, 19.2693°E)
Time: 21:38:03
(UTC+00:00)

FALCON 9 DEB - Pass Details

Date: 03 March 2021
Orbit: 367 x 384 km, 53.0° (Epoch: 15 April)

Event Time Altitude Azimuth Distance (km) Brightness Sun altitude
Rises 18:22:24 0° 281° (W) 2,289 8.5 -18.5°
Reaches altitude 10° 18:24:28 10° 282° (WNW) 1,430 7.0 -18.8°
Maximum altitude 18:27:40 88° 14° (NNE) 396 2.8 -19.3°
Enters shadow 18:27:41 88° 35° (NE) 396 2.8 -19.3°
